{"data":{"norad_id":44747,"intl_designator":"2019-074AL","name":"STARLINK-1042","alt_names":[],"object_type":"PAYLOAD","status":"ACTIVE","operator":null,"country":"US","launch_date":"2019-11-11","launch_site_code":"AFETR","launch_vehicle":null,"mission":null,"orbit_class":"UNKNOWN","rcs_meters":null,"size_class":null,"mass_kg":null,"dimensions":null,"purposes":["comms"],"wikipedia_slug":null,"has_3d_model":false,"image_url":null,"decayed_at":null,"tle_current":{"epoch":"2026-09-20T05:16:02.430912Z","epoch_age_seconds":38583,"freshness":"FRESH","line1":"1 44747U 19074AL  26263.21947258  .00027609  00000+0  32488-3 0  9995","line2":"2 44747  53.0389 234.2985 0005973  53.1683 306.9877 15.61213411380331","mean_motion":15.61213411,"eccentricity":0.0005973,"inclination_deg":53.0389,"raan_deg":234.2985,"arg_perigee_deg":53.1683,"mean_anomaly_deg":306.9877,"bstar":0.00032488,"rev_number":38033,"period_min":92.235948644436,"perigee_km":380.11182463732,"apogee_km":388.19005380952,"semimajor_km":6762.2879392234,"source":"CELESTRAK","updated_at":"2026-09-20T09:00:38.219285Z"}}}